Date,TemperatureHighF,TemperatureAvgF,TemperatureLowF,DewpointHighF,DewpointAvgF,DewpointLowF,HumidityHigh,HumidityAvg,HumidityLow,PressureMaxIn,PressureMinIn,WindSpeedMaxMPH,WindSpeedAvgMPH,GustSpeedMaxMPH,PrecipitationSumIn
2013-3-1,42.4,34.6,30.4,26.9,-1.7,-19.6,76,31,10,30.02,29.89,13,6,16,0.00
2013-3-2,36.3,32.5,28.6,-15.0,-17.9,-21.0,10,10,10,30.03,29.96,11,5,14,0.00
2013-3-3,33.6,27.9,25.5,7.1,-18.3,-23.7,38,13,10,30.01,29.93,11,5,14,0.00
2013-3-4,39.9,28.9,21.9,-12.2,-20.7,-26.2,10,10,10,30.11,29.93,17,8,22,0.00
2013-3-5,44.1,32.1,23.9,-6.6,-17.6,-24.6,18,10,10,30.40,30.11,12,5,15,0.00
2013-3-6,36.1,32.0,29.1,25.1,18.0,-10.2,72,57,15,30.40,30.35,17,6,20,0.05
2013-3-7,32.5,29.3,26.8,21.7,10.8,-12.8,74,50,13,30.40,30.32,19,7,21,0.01
2013-3-8,37.6,31.1,27.1,26.4,8.1,-19.4,76,51,10,30.50,30.30,16,6,16,0.04
2013-3-9,59.0,39.0,26.4,2.5,-11.9,-22.7,27,11,10,30.65,30.49,11,4,15,0.00
2013-3-10,52.9,38.1,24.4,11.5,-3.9,-15.4,51,21,10,30.75,30.59,9,3,11,0.00
2013-3-11,52.5,40.0,31.3,24.3,3.1,-12.1,50,25,10,30.63,30.47,13,6,17,0.00
2013-3-12,50.4,46.4,40.6,50.1,41.1,25.2,99,83,52,30.48,30.07,14,6,19,0.74
2013-3-13,48.4,38.2,30.7,39.7,4.6,-19.3,99,39,10,30.18,30.09,16,6,17,0.00
2013-3-14,32.2,25.5,17.1,-18.2,-23.4,-30.0,10,10,10,30.23,30.12,16,8,24,0.00
2013-3-15,38.7,26.1,14.0,12.4,-19.3,-32.4,47,14,10,30.25,30.04,18,7,22,0.00
2013-3-16,38.8,29.4,21.6,-3.5,-19.1,-26.5,25,11,10,30.26,30.08,14,4,17,0.00
2013-3-17,35.1,26.1,18.9,-16.0,-22.9,-28.6,10,10,10,30.68,30.26,14,6,21,0.00
2013-3-18,39.6,25.2,10.2,2.0,-21.3,-35.3,36,12,10,30.82,30.58,7,3,11,0.00
2013-3-19,32.5,29.0,24.8,24.5,19.1,8.4,72,66,49,30.50,30.04,11,5,13,0.00
2013-3-20,36.7,26.7,19.6,17.3,-11.2,-26.5,69,24,10,30.21,30.11,18,4,22,0.11
2013-3-21,41.7,28.0,17.4,-8.9,-18.8,-29.3,28,12,10,30.21,30.00,11,3,11,0.00
2013-3-22,37.8,28.3,18.3,-13.9,-21.2,-29.0,10,10,10,30.16,30.00,20,6,20,0.00
2013-3-23,39.6,31.0,21.2,-12.5,-19.1,-26.7,10,10,10,30.21,30.04,21,7,27,0.00
2013-3-24,46.2,35.2,27.1,-7.3,-15.8,-22.1,10,10,10,30.25,30.06,15,6,18,0.00
2013-3-25,43.5,34.7,27.7,-9.4,-16.3,-21.7,10,10,10,30.14,29.86,12,4,17,0.00
2013-3-26,46.6,36.2,31.8,-7.0,-15.1,-18.5,10,10,10,30.16,29.92,12,4,14,0.00
2013-3-27,49.6,38.0,25.2,-4.7,-13.7,-23.7,10,10,10,30.24,30.13,14,5,18,0.00
2013-3-28,48.6,37.2,32.5,15.9,-3.2,-16.5,49,21,10,30.38,30.23,13,4,13,0.00
2013-3-29,57.0,42.3,32.2,3.1,-9.0,-16.0,28,11,10,30.40,30.33,11,4,16,0.00
2013-3-30,55.2,38.4,28.8,-0.4,-12.7,-20.7,21,11,10,30.48,30.38,14,4,19,0.00
2013-3-31,57.2,45.2,28.8,15.0,-5.2,-21.0,37,13,10,30.50,30.11,19,6,19,0.09